Wind_Speed
15 17 16 18 19 17 13 1 1 2 1 3 5 5 7 7 5 4 5 7 7 5 8 11 12 10 11 11 13 11 6 2 0 3 2 7 23 30 29 31 31 29 27 22 21 19 18 19 18 19 18 19 20 21 22 21 20 18 18 18 18 17 16 15 15 15 15 15 15 15 15 14 14 14 14 14 14 14 13 13 13 13 13 13 13 13 13 13 13 13 13 14 14 14 12 11 13
14 16 15 18 16 7 3 2 1 3 2 4 5 5 7 9 7 4 6 6 5 4 8 12 14 15 17 15 14 11 8 5 6 5 7 22 28 25 29 30 30 29 26 23 21 20 19 19 19 19 19 20 20 21 22 21 20 19 19 19 18 17 16 15 14 15 15 15 15 15 15 14 14 14 14 14 14 14 13 12 12 12 12 12 12 12 12 12 12 12 12 13 13 15 14 13 16
14 15 16 18 9 2 1 1 1 2 2 4 5 6 7 10 7 5 6 3 4 6 9 11 12 10 12 11 8 7 5 5 11 9 10 22 21 20 27 28 29 28 26 24 21 20 20 19 19 20 20 21 21 21 21 20 20 20 20 19 18 17 16 15 14 14 15 15 15 15 15 15 15 14 14 13 13 13 12 12 11 11 11 11 11 11 11 10 11 13 12 12 13 15 15 15 18
12 12 15 13 5 1 2 1 2 1 1 4 5 7 8 9 10 5 3 3 4 7 7 9 8 5 11 12 7 7 6 5 11 11 8 16 22 24 28 27 27 26 24 23 21 21 20 18 20 21 21 21 21 21 21 21 21 21 20 19 18 17 16 15 15 15 15 15 15 15 15 15 15 15 14 13 13 12 12 11 11 10 11 11 10 10 10 9 12 13 12 12 12 14 15 15 17
11 12 14 6 2 2 2 1 1 1 2 4 4 7 10 9 12 9 0 3 5 6 6 8 6 4 10 9 5 5 5 7 11 13 12 19 29 30 28 28 27 25 23 21 21 21 19 19 21 22 22 21 22 22 22 22 22 22 20 18 18 17 16 16 15 15 15 15 15 15 15 14 14 14 13 13 12 11 11 10 9 9 9 9 9 9 9 10 12 13 12 12 12 13 14 14 16
10 13 12 4 1 2 1 1 2 4 5 5 5 7 10 11 13 8 2 5 4 5 9 10 9 8 8 6 6 4 7 10 11 14 20 25 30 30 29 28 27 25 22 21 22 21 19 19 22 23 23 23 23 23 24 23 22 20 19 18 17 17 16 16 15 15 15 15 15 15 14 13 12 12 11 10 10 9 9 8 8 8 8 8 7 7 9 11 11 11 11 11 12 12 13 14 14
9 9 5 2 1 2 2 3 4 5 6 7 7 8 10 12 13 9 1 3 1 3 11 11 13 13 6 5 5 5 12 14 12 17 26 29 29 29 28 28 27 25 22 22 22 21 19 20 23 23 23 23 23 23 23 21 20 18 18 17 17 16 16 16 15 15 15 14 14 13 13 12 11 10 9 8 7 8 7 7 7 7 7 7 6 7 8 10 11 10 10 10 12 12 13 13 14
10 4 1 2 2 1 1 4 5 5 6 8 9 10 13 12 12 12 5 4 2 2 12 13 15 13 6 7 4 4 15 19 21 27 31 31 30 28 29 30 28 26 23 23 23 21 20 20 22 22 23 22 22 21 20 19 18 17 17 17 17 16 16 16 15 15 14 13 13 12 11 11 10 10 9 7 7 6 6 5 6 7 7 7 6 7 8 9 10 9 9 10 11 12 13 13 14
7 3 1 1 1 2 3 4 5 6 8 10 11 12 14 12 13 14 6 3 3 2 12 13 13 11 7 10 7 4 13 24 30 31 31 30 29 29 30 30 28 28 26 24 24 23 21 21 21 20 21 20 19 18 17 17 17 17 17 17 17 16 16 15 15 14 13 12 11 11 10 10 9 9 8 7 7 6 5 5 5 7 7 6 7 8 8 8 8 9 9 9 10 11 12 12 13
3 3 1 1 2 3 4 4 5 5 8 10 12 14 13 14 14 11 3 4 4 4 12 13 13 13 11 11 7 4 14 28 33 30 29 29 29 31 31 28 28 29 28 26 25 24 22 20 21 20 19 19 18 18 17 17 17 17 17 17 16 16 16 15 14 13 12 12 11 10 9 9 8 8 8 7 7 7 6 5 5 6 7 7 8 8 8 7 8 8 8 9 9 10 11 12 12
1 3 2 1 3 4 4 5 5 5 8 9 12 13 13 13 9 6 3 4 3 6 13 13 12 14 13 8 4 10 23 28 28 28 27 26 31 33 31 27 26 28 28 28 27 25 22 20 20 20 19 19 18 17 17 17 17 16 16 16 16 15 15 14 13 12 11 10 9 9 8 8 7 7 7 6 6 7 7 7 5 5 6 7 8 8 7 8 9 8 8 9 9 9 9 10 11
1 3 2 3 4 4 5 5 6 7 9 9 12 13 11 10 4 7 4 3 2 5 10 11 11 12 11 5 3 13 24 23 25 28 24 27 33 33 31 28 26 27 27 28 28 26 22 20 19 19 19 19 18 17 16 16 16 16 16 16 15 15 14 14 12 11 10 9 8 7 7 7 7 7 6 6 6 7 8 7 6 5 6 7 7 7 8 9 10 9 8 8 9 8 8 8 9
3 3 2 3 4 4 5 5 6 8 8 7 10 13 8 6 2 4 3 3 2 1 6 15 15 11 8 4 4 10 16 22 26 26 24 29 33 32 30 29 27 27 27 28 28 26 23 21 20 18 18 18 17 16 16 16 15 15 15 15 15 14 13 12 11 9 8 7 7 7 7 7 7 6 6 7 8 9 10 9 8 6 6 6 7 8 9 10 11 9 8 8 9 8 8 7 7
4 3 3 3 3 4 4 5 5 6 6 7 11 11 7 2 0 1 3 0 1 3 8 16 17 14 8 5 5 5 11 24 28 25 27 31 31 30 29 29 28 27 26 27 27 26 23 21 21 19 17 17 17 16 16 15 15 15 15 15 14 13 12 10 9 8 7 7 7 7 7 8 8 7 7 7 9 11 12 12 10 8 7 7 7 8 10 11 10 9 9 8 8 8 8 7 6
6 2 3 3 4 4 4 5 5 7 6 8 12 7 4 3 3 3 5 2 3 9 11 8 8 12 10 10 8 7 15 28 28 27 30 32 31 30 29 28 27 25 24 25 26 24 22 22 21 19 18 17 17 17 16 15 14 14 14 14 13 11 10 9 8 7 7 7 8 9 9 9 9 9 8 8 9 11 12 13 12 11 9 8 8 9 10 11 9 8 8 7 7 7 7 7 7
5 3 3 3 4 5 4 5 6 7 6 9 12 4 4 5 2 1 3 4 6 10 9 4 2 7 13 13 14 17 25 31 30 31 33 33 32 30 29 28 26 24 23 24 23 22 21 22 21 19 18 17 16 16 16 15 14 13 14 13 12 10 9 8 8 8 8 8 8 9 10 10 9 8 8 8 8 9 11 12 12 13 12 10 9 9 9 9 8 7 6 5 5 5 5 5 5
3 4 4 4 5 5 5 6 5 6 6 11 12 4 4 6 3 1 2 6 7 6 7 5 1 7 13 14 23 30 32 33 32 31 30 30 29 27 26 25 26 24 23 22 22 21 20 21 20 17 16 15 15 16 15 15 14 13 13 12 11 9 8 8 7 8 8 8 7 6 7 8 7 7 8 8 8 8 9 9 10 12 13 12 11 9 8 6 5 4 4 3 2 2 2 2 4
4 4 6 6 6 6 6 7 7 7 7 11 13 5 3 4 3 1 2 6 10 10 8 7 9 10 14 22 32 34 34 34 32 29 26 25 24 22 20 22 25 24 23 23 22 21 21 20 18 16 15 14 14 14 15 15 14 13 13 12 11 9 8 8 8 8 9 8 7 5 4 5 5 5 5 6 7 7 6 7 7 9 10 11 11 10 8 6 4 3 2 1 0 1 1 0 3
6 4 6 7 6 6 7 9 9 9 9 11 9 2 1 4 1 1 0 3 11 12 8 10 15 14 16 23 29 30 33 33 30 27 24 23 22 20 19 20 23 24 24 25 24 22 21 20 18 18 17 13 13 14 14 14 14 13 12 12 10 9 8 7 7 8 9 8 6 5 4 2 3 4 4 5 6 6 5 5 5 6 7 7 8 8 7 6 5 4 2 1 1 2 2 1 3
6 5 6 6 6 8 9 11 12 11 12 13 7 2 1 5 3 2 1 2 9 12 9 12 15 16 16 16 21 27 30 28 27 26 24 24 24 22 21 21 23 23 24 25 25 23 23 22 19 18 16 14 14 13 14 14 13 12 12 11 9 8 8 6 5 4 4 4 4 4 4 4 4 3 2 1 1 3 4 4 4 4 4 5 4 4 4 4 4 3 4 3 2 1 2 2 3
5 7 7 5 7 10 11 13 15 15 14 12 4 3 2 2 3 3 3 2 3 9 14 17 20 20 19 16 17 22 23 23 24 23 18 17 19 20 19 21 22 22 22 22 22 22 23 23 21 18 15 14 13 13 14 15 13 11 10 8 7 7 8 6 2 1 2 4 5 4 5 6 5 4 5 5 3 1 1 2 2 1 1 2 3 2 1 2 2 3 3 4 3 3 4 5 6
4 8 10 8 8 8 10 14 17 16 13 8 2 4 1 1 2 6 4 4 4 7 13 18 21 20 19 17 15 17 17 15 16 16 13 11 11 12 11 14 18 19 19 20 21 21 21 23 21 18 16 13 12 14 16 15 12 11 9 6 6 8 8 5 2 4 6 6 6 5 6 6 5 4 5 5 4 3 2 1 1 2 2 3 3 3 2 3 5 5 6 5 5 7 7 8 9
6 7 9 12 12 9 11 13 14 11 6 2 2 2 2 4 3 7 12 6 4 10 13 16 16 16 16 13 11 10 10 12 18 22 18 16 16 15 11 8 12 17 19 21 22 22 22 22 20 19 16 13 12 15 16 15 14 13 11 8 6 7 7 6 5 7 6 5 5 5 6 6 5 5 4 3 3 3 2 1 1 3 4 4 4 4 4 4 6 8 8 8 8 9 9 10 11
10 8 8 12 12 13 15 15 14 9 2 2 1 3 4 3 3 11 16 13 17 21 20 19 16 17 18 15 13 12 14 17 20 21 18 17 17 15 12 8 10 18 21 21 23 22 21 20 19 18 15 13 14 14 15 15 15 15 13 10 8 7 8 8 8 7 5 6 6 5 6 6 4 4 2 1 1 1 1 1 2 4 4 4 4 5 5 4 5 7 7 7 7 8 9 10 9
13 11 9 10 10 14 15 16 16 9 4 2 3 4 1 1 7 12 8 10 18 22 21 19 17 15 14 14 15 14 17 19 15 17 20 21 24 23 19 15 14 19 22 21 22 21 20 19 17 17 16 14 14 15 15 15 14 15 12 9 7 7 8 8 8 5 4 6 6 6 5 4 3 2 0 2 1 1 2 2 3 4 4 3 4 4 4 5 5 6 6 6 7 7 8 8 8
12 13 11 10 11 13 12 15 16 9 5 4 3 4 5 1 11 9 6 6 12 20 19 15 18 16 12 11 12 12 14 17 16 17 20 23 25 25 25 23 21 21 22 22 21 20 19 18 17 16 16 14 15 17 16 16 16 16 14 11 8 9 10 9 7 5 5 6 5 6 4 3 2 2 2 3 3 2 3 3 3 4 5 4 4 5 4 5 6 7 7 8 8 8 9 9 8
10 13 13 12 12 12 12 13 12 7 6 6 4 3 5 2 7 3 3 5 11 19 17 12 16 15 13 11 10 13 13 15 18 18 18 19 21 24 24 23 25 25 24 22 21 20 17 18 18 16 15 15 17 16 14 17 18 17 17 14 12 12 13 13 10 8 6 4 4 5 4 3 2 1 2 3 4 3 3 3 1 2 4 5 5 5 4 4 5 5 7 7 8 8 9 9 9
10 13 12 14 13 12 14 13 8 3 4 7 6 3 3 2 4 3 2 5 11 18 16 13 15 13 14 12 9 12 14 17 21 20 17 16 19 22 22 24 29 27 24 23 22 20 18 20 20 18 15 14 14 12 13 17 17 17 16 14 12 12 13 13 11 9 6 3 4 4 3 2 1 1 3 4 4 3 3 3 3 4 5 4 5 5 5 5 5 6 6 7 7 8 8 8 9
11 11 10 13 14 13 17 14 7 3 3 7 6 2 2 5 4 4 6 6 11 17 15 13 13 12 13 11 9 7 11 18 19 15 12 15 19 19 22 29 30 26 24 24 24 20 19 22 22 18 15 13 11 11 14 16 15 14 14 12 10 10 11 10 9 7 6 2 3 4 2 2 1 2 3 4 3 3 4 4 5 6 5 5 6 6 7 7 7 8 7 7 8 9 9 8 9
11 10 7 8 9 11 15 12 8 6 5 7 7 3 1 7 6 5 7 8 13 15 12 12 11 10 11 10 10 7 9 13 14 15 16 18 15 13 22 29 27 25 25 26 25 21 19 22 22 18 15 13 11 11 13 14 13 12 12 10 8 8 9 7 6 6 6 6 2 5 3 3 3 2 3 3 2 3 4 6 5 4 4 5 6 6 6 6 6 7 7 7 8 10 9 9 10
9 8 6 5 5 6 8 7 7 8 5 8 8 5 4 6 6 6 5 7 14 14 9 11 10 9 10 9 10 8 7 10 15 19 21 18 12 13 23 27 27 28 27 27 25 22 20 20 20 18 14 12 11 12 13 12 11 11 9 8 8 7 7 6 6 6 7 7 4 2 3 2 5 4 4 4 5 5 4 6 6 4 5 5 4 4 5 5 5 6 7 8 9 9 9 10 10
6 6 6 5 5 4 5 6 9 8 5 9 9 3 4 6 5 6 6 6 13 14 9 9 10 11 11 9 10 9 7 10 16 20 22 21 17 20 25 27 28 29 27 26 24 23 22 20 19 17 14 13 12 12 13 12 11 11 9 8 8 7 7 7 8 7 6 6 7 4 2 1 6 6 5 5 8 8 6 8 9 7 6 4 4 3 4 5 5 6 7 8 9 10 11 12 11
5 6 6 5 6 4 4 6 9 10 7 7 10 4 4 6 5 6 8 8 13 14 10 10 10 10 11 9 9 9 8 9 10 14 20 25 26 25 26 27 29 30 28 27 25 24 23 20 19 17 15 14 14 14 14 13 12 11 10 10 9 8 8 9 10 9 9 9 9 5 2 5 8 8 8 8 11 12 11 11 10 8 7 5 4 4 4 5 6 6 6 7 9 10 11 12 13
5 5 5 5 5 5 4 5 7 11 12 9 11 7 5 8 7 8 9 9 12 13 11 10 10 9 10 9 9 9 9 8 7 9 13 21 26 26 25 27 28 28 28 26 25 24 23 21 20 18 16 15 15 15 15 14 12 11 11 11 11 11 11 11 11 12 12 13 13 9 7 8 9 9 10 11 13 13 12 11 10 9 8 7 6 6 6 6 6 7 7 6 7 8 10 12 13
6 5 5 4 5 5 7 7 8 11 14 12 10 7 8 11 9 8 10 10 11 12 10 9 9 9 9 9 8 8 7 6 4 5 8 13 19 22 23 25 26 26 26 25 25 23 22 22 21 19 18 16 15 15 15 14 13 13 13 13 12 12 14 15 15 16 17 18 16 12 10 9 9 9 10 11 13 13 12 11 10 10 9 9 9 8 9 9 8 8 8 8 7 8 12 14 13
7 7 5 5 6 6 7 10 11 10 12 14 10 8 11 12 11 10 10 10 11 11 10 9 9 9 8 7 7 7 6 5 6 7 7 8 10 15 18 21 22 23 24 23 22 21 22 23 22 20 18 17 16 16 17 16 15 15 14 14 15 15 17 17 18 19 20 19 16 13 11 11 10 10 10 10 12 13 13 12 11 10 9 10 11 11 12 11 12 11 10 10 9 8 12 15 15
9 8 7 8 8 7 7 10 12 11 10 12 10 12 12 10 9 10 10 10 11 11 11 10 10 10 8 8 8 7 5 6 9 12 11 9 9 12 16 18 19 19 20 20 21 21 22 23 22 21 19 18 18 18 17 16 16 16 16 17 18 18 18 18 18 17 18 17 14 11 11 11 10 9 9 9 11 12 13 12 11 10 8 10 11 12 11 11 12 12 11 10 11 11 13 16 17
11 8 8 9 8 8 10 11 12 11 8 8 13 15 11 10 8 7 9 12 10 10 12 11 12 11 9 9 8 7 6 7 9 11 13 13 11 13 15 17 17 17 18 19 20 21 21 21 21 20 19 17 18 18 16 16 16 16 18 20 20 19 19 19 18 16 15 14 12 10 9 8 8 8 9 9 10 11 12 12 12 11 9 9 10 10 9 9 11 12 12 12 11 11 12 16 19
11 7 7 6 8 8 10 14 15 9 7 7 15 14 9 9 8 6 8 10 8 8 10 11 12 11 10 9 8 8 9 9 8 8 12 14 13 13 14 15 15 16 17 18 19 20 19 19 20 19 18 17 16 16 16 17 17 16 18 19 20 21 21 20 18 15 13 11 10 9 8 8 8 9 9 9 10 10 10 11 12 12 11 9 9 9 9 9 11 12 13 13 12 12 12 15 19
9 7 5 5 8 9 7 12 12 4 8 11 15 11 6 7 6 6 8 8 8 8 9 8 9 10 10 9 8 10 12 10 8 7 9 13 13 12 12 13 15 16 16 16 17 18 18 18 19 18 18 17 17 17 17 18 18 16 16 18 19 21 20 18 17 14 10 8 8 9 9 9 9 10 11 10 11 11 10 9 10 12 12 11 10 10 10 11 12 12 12 13 14 14 13 15 16
10 10 7 5 8 10 10 6 3 9 11 15 16 9 3 5 6 5 7 9 9 8 9 8 6 8 10 10 8 10 12 11 9 8 8 11 12 12 13 14 15 15 15 15 16 17 18 18 18 18 19 19 19 19 18 18 19 18 19 19 19 19 18 15 15 14 11 9 9 10 10 10 10 11 12 12 12 12 10 9 10 11 12 12 12 12 13 12 12 12 12 13 15 15 14 15 16
8 11 10 11 9 9 13 8 10 9 4 9 13 7 1 3 7 7 6 8 8 7 9 7 5 7 9 10 10 10 10 10 9 8 8 10 13 14 15 15 14 14 14 16 16 17 18 19 19 19 19 19 19 19 18 18 19 21 22 20 18 18 18 15 14 13 11 10 9 9 9 9 10 11 12 13 13 13 11 9 10 12 14 13 13 14 14 14 13 13 13 12 14 15 14 17 18
5 9 11 15 14 10 12 10 8 5 5 8 9 7 3 4 6 9 9 10 9 8 8 6 5 7 8 9 10 10 11 11 9 8 8 10 13 15 16 16 15 15 16 17 17 19 19 19 20 20 19 18 18 18 17 15 15 20 20 17 17 18 19 16 13 11 10 9 9 8 8 9 11 12 12 12 12 13 13 10 9 12 15 14 13 15 16 15 14 13 13 12 14 15 16 19 19
6 9 11 14 15 14 14 8 7 5 6 9 7 7 5 4 6 10 12 12 10 9 9 7 7 8 8 8 9 11 12 12 11 9 8 9 13 15 16 17 18 18 19 19 20 20 20 20 20 20 21 20 19 18 16 15 15 18 19 17 17 16 17 16 13 11 10 10 10 10 10 11 11 12 12 11 10 12 14 11 9 11 14 14 14 17 17 14 14 14 15 15 15 16 18 18 18
7 9 11 12 13 15 13 4 5 7 9 6 6 7 6 2 5 10 12 12 11 12 12 10 9 9 9 8 8 10 12 13 13 11 9 11 14 15 16 18 19 20 20 20 21 21 20 21 21 21 21 20 19 18 17 18 19 20 19 18 18 17 16 15 13 12 11 11 11 12 11 11 10 10 11 11 9 10 13 13 11 12 14 14 14 17 18 16 17 18 19 20 19 19 19 18 18
8 10 12 12 11 11 8 2 3 6 7 7 9 8 5 1 4 9 10 10 11 12 11 10 10 10 10 9 10 10 10 11 12 12 11 13 16 17 17 19 19 19 20 21 21 22 22 21 21 21 21 19 19 18 18 20 21 20 19 18 19 18 17 15 13 12 11 11 12 12 12 11 10 9 10 12 11 11 12 14 14 15 16 16 15 16 17 18 19 20 20 20 19 18 18 18 18
9 11 11 10 9 5 3 2 3 3 3 6 12 12 8 3 4 8 9 10 14 13 10 10 11 11 11 9 10 11 10 10 11 11 11 15 18 19 19 18 18 20 20 21 22 22 22 21 21 21 19 18 17 16 17 19 20 20 19 18 17 16 15 13 13 14 13 13 13 13 13 13 13 13 12 12 13 13 14 16 17 17 18 17 16 16 17 16 17 17 17 18 18 17 17 18 18
8 10 7 5 5 3 3 3 3 3 5 6 12 13 8 5 5 9 9 10 18 17 14 16 15 13 13 10 10 11 11 11 11 11 11 14 17 18 19 17 19 20 20 22 23 23 23 22 21 21 19 17 16 15 15 16 17 18 18 17 15 13 12 12 13 15 15 15 14 13 13 15 15 15 15 15 15 15 16 18 18 18 18 18 17 17 17 15 14 15 16 16 17 17 17 17 17
9 8 6 5 4 3 4 3 1 3 4 4 10 10 5 3 7 14 12 12 19 18 16 19 18 16 14 12 12 11 11 12 12 11 11 11 13 16 18 18 18 19 20 23 25 24 23 22 22 21 20 19 18 17 16 14 14 14 15 16 15 14 13 14 15 16 16 16 15 14 13 14 14 15 15 16 16 16 17 19 19 19 18 18 16 17 17 15 14 15 16 16 17 17 16 17 17
10 9 6 5 5 5 6 4 2 2 2 2 5 5 3 0 3 14 18 16 19 18 17 18 18 18 16 13 13 12 11 12 11 11 11 10 13 16 19 20 18 19 23 25 24 24 23 22 21 21 20 19 19 19 18 16 15 14 13 14 14 15 17 18 18 17 17 17 15 14 14 14 14 14 15 17 16 16 17 18 19 19 18 17 16 16 17 16 15 16 17 17 18 17 16 17 17
10 8 5 4 4 5 4 3 3 3 2 2 2 1 2 2 3 11 15 13 15 15 13 14 14 14 14 12 13 12 11 11 11 11 11 12 16 18 20 20 18 21 24 24 24 24 23 22 21 21 20 18 18 18 18 17 17 15 14 14 14 16 19 19 19 19 18 17 15 15 15 14 14 15 15 17 17 16 17 17 17 18 18 17 16 15 16 17 16 16 18 18 18 17 16 17 17
8 5 4 4 5 5 4 3 4 5 3 2 3 0 0 1 2 8 14 13 14 15 13 14 13 13 14 12 13 12 11 11 11 12 11 13 17 19 20 19 19 23 24 23 24 24 23 22 21 20 19 17 16 15 15 16 16 16 16 15 15 16 18 19 20 19 17 16 16 16 15 15 15 16 16 17 17 17 17 17 17 17 17 17 17 16 16 16 17 17 17 18 17 16 16 17 17
6 4 4 6 4 6 5 2 2 5 3 2 2 2 2 4 5 6 15 16 15 16 16 16 16 16 15 13 12 12 12 12 12 11 12 14 17 19 19 19 21 23 23 23 24 23 23 22 22 21 20 18 17 15 14 14 15 15 15 14 15 16 18 18 19 18 16 16 16 16 16 16 16 16 17 16 17 17 17 16 16 16 16 17 17 17 17 16 16 17 17 18 17 16 16 17 17
5 4 5 5 4 4 4 3 1 4 3 3 2 5 4 4 1 1 12 16 14 17 17 16 17 18 16 13 13 13 13 13 13 12 13 15 19 20 19 20 22 23 24 24 24 23 23 22 22 22 21 19 18 16 15 15 15 15 16 15 15 15 16 16 17 17 16 16 17 17 17 16 16 16 16 16 16 16 16 16 16 15 15 16 16 17 17 16 16 17 17 17 16 15 16 17 16
4 6 6 5 5 3 1 3 4 5 3 3 1 7 5 4 6 9 13 16 16 16 16 16 17 18 16 13 14 15 14 13 13 13 12 13 18 20 20 22 23 24 24 25 24 24 23 22 21 20 19 18 17 16 16 16 15 15 16 15 15 15 15 16 17 17 17 17 17 17 17 17 16 16 16 16 15 15 15 16 16 15 14 15 15 15 16 16 16 16 16 16 15 15 16 17 16
5 4 5 5 4 3 3 4 4 5 4 2 2 4 4 4 11 17 18 18 19 17 16 16 18 19 15 14 15 15 14 13 12 12 12 13 17 20 22 24 24 24 25 25 25 24 23 22 21 19 19 18 18 17 17 16 16 16 16 16 16 17 17 17 17 18 18 18 17 17 17 17 17 16 16 16 15 14 14 14 14 14 13 13 14 13 14 14 15 15 14 14 14 14 15 16 16
5 3 4 5 3 2 3 2 3 5 4 4 3 3 5 4 10 19 21 19 20 21 18 16 17 18 16 15 15 15 14 13 13 12 12 14 18 21 24 25 24 25 25 26 26 24 24 23 22 20 20 19 18 16 16 17 17 17 18 18 18 18 18 18 18 18 19 18 17 17 17 17 17 16 15 15 15 14 13 13 12 12 12 11 12 12 12 14 15 15 14 13 13 13 14 15 15
6 3 3 6 5 3 2 2 2 4 4 5 5 3 5 5 4 15 20 19 20 22 20 16 17 19 15 14 15 16 14 13 13 13 12 14 18 21 24 24 25 25 25 25 24 24 24 24 23 22 20 19 18 17 18 18 18 18 19 19 20 20 20 20 20 20 19 19 18 18 17 17 17 16 16 16 16 14 13 13 12 11 10 10 10 11 12 13 15 15 14 13 13 13 14 15 15
Wind_Direction
325 323 323 325 323 321 319 5 26 302 138 288 272 280 279 287 310 356 39 51 55 46 35 67 80 87 102 106 113 93 63 12 120 157 189 119 112 121 133 135 138 138 135 136 137 137 138 139 137 136 135 134 131 126 127 128 129 128 127 126 121 116 110 107 108 106 106 105 102 100 98 98 97 97 97 97 97 99 101 103 104 102 99 96 91 84 83 81 70 61 58 58 58 59 63 77 92
324 320 322 330 324 319 317 93 59 305 356 302 280 277 280 305 319 34 46 38 60 70 62 87 93 98 112 117 113 88 61 54 85 95 103 113 110 117 132 138 140 137 135 136 137 138 141 141 140 137 133 133 130 126 127 129 129 128 129 126 121 117 113 111 109 108 108 106 103 101 100 98 98 99 99 99 99 100 101 103 105 103 100 96 91 87 83 79 71 65 64 60 56 56 62 86 104
322 321 328 340 334 182 239 26 128 281 327 287 278 280 289 304 311 68 84 71 98 94 82 90 83 93 109 100 86 82 93 83 95 96 112 119 112 122 135 140 139 134 134 135 137 140 141 141 140 136 132 131 129 128 129 129 130 130 129 125 123 120 117 115 111 110 109 107 105 102 101 100 100 99 100 101 101 102 103 104 104 102 101 97 91 87 81 76 73 68 66 63 58 60 71 97 111
313 319 327 342 349 175 19 9 200 229 261 264 276 284 290 296 308 346 132 158 106 97 94 87 66 62 90 95 87 80 106 107 110 112 120 123 124 133 137 136 132 129 132 135 139 141 141 142 140 135 133 132 131 131 130 130 130 130 129 127 126 122 119 117 114 113 110 109 107 104 103 102 103 102 102 102 103 104 104 103 103 103 102 99 96 90 87 85 79 72 66 64 60 64 81 104 112
304 319 313 315 2 339 47 330 291 301 257 261 276 284 291 296 303 309 222 106 86 93 109 110 96 72 77 91 99 95 127 125 117 113 111 120 129 134 134 132 128 128 133 137 140 140 141 142 139 135 133 133 132 131 131 131 131 131 130 129 127 123 121 118 117 114 113 111 109 108 106 106 106 106 105 106 109 111 109 109 108 107 106 106 109 102 97 93 81 74 71 67 65 67 83 108 115
310 323 303 241 261 322 90 280 278 274 255 246 262 272 286 293 289 290 23 65 88 109 107 110 116 105 78 65 59 98 146 123 111 115 120 127 132 134 133 131 129 131 137 141 140 138 141 142 138 135 134 133 132 131 132 133 132 131 130 129 126 124 121 119 119 117 116 114 113 113 111 109 107 108 108 111 114 116 120 120 115 114 111 109 109 106 106 98 85 77 76 74 73 72 82 105 118
314 324 305 166 308 312 126 232 235 255 248 238 254 262 272 281 284 285 310 75 57 121 105 109 116 102 82 88 56 87 124 117 117 130 132 134 136 135 134 132 131 133 138 140 135 135 139 140 137 135 135 134 133 133 134 133 131 130 129 128 126 125 123 123 122 120 120 116 115 114 110 106 104 105 105 110 110 114 128 126 120 125 124 115 105 108 114 103 91 83 80 82 82 79 81 99 118
292 290 349 63 336 285 183 249 241 248 261 259 261 262 265 267 276 282 253 153 223 151 109 115 109 92 73 97 81 88 112 119 129 135 136 138 140 137 135 133 132 133 138 137 131 134 137 136 135 135 135 134 135 135 135 133 131 131 130 129 128 127 126 126 125 123 121 117 115 111 108 105 103 103 101 107 108 117 134 135 129 133 132 125 117 113 115 105 95 88 82 84 88 86 83 96 118
272 233 317 326 233 278 258 267 259 252 265 270 270 266 264 259 263 271 269 166 195 111 117 128 106 100 107 94 97 90 104 123 131 136 139 143 143 137 135 134 134 134 136 136 134 136 136 136 135 134 135 134 134 134 134 132 132 133 132 132 131 130 129 128 125 122 120 117 113 108 106 104 104 104 104 103 105 113 122 131 132 130 130 127 120 115 117 109 98 91 84 85 89 91 87 95 118
265 198 237 231 211 270 262 268 263 257 262 263 267 266 265 262 254 252 228 148 181 82 109 115 97 113 124 103 108 112 117 130 133 138 146 147 142 135 133 136 139 138 137 137 137 136 136 140 140 138 137 136 136 137 136 135 135 135 135 135 133 132 130 128 124 121 119 114 110 106 104 102 103 100 99 100 101 100 96 106 116 124 128 126 121 117 119 114 107 98 88 86 89 92 90 96 115
278 216 185 220 237 245 244 260 263 266 271 271 275 272 272 270 247 215 162 163 191 121 118 103 100 117 112 105 118 129 130 135 137 146 152 141 135 134 133 139 143 143 141 139 137 136 139 144 143 141 140 139 140 139 138 138 138 137 137 136 134 133 130 127 125 123 118 113 108 105 102 99 99 97 95 95 99 94 87 89 99 118 130 132 126 124 124 119 119 108 94 89 89 90 89 95 110
219 249 180 206 215 225 229 238 261 267 270 274 278 278 281 293 238 177 170 190 180 139 138 118 125 119 103 111 132 135 136 141 143 149 148 129 131 135 136 139 140 142 142 139 138 139 142 144 143 143 142 142 141 140 139 139 139 139 138 136 134 132 130 128 126 123 117 111 106 99 95 93 97 100 96 86 89 88 83 81 90 110 122 130 129 129 130 128 129 119 105 94 91 89 86 91 101
192 232 185 220 211 215 234 234 255 263 268 265 268 276 286 335 338 181 141 171 175 180 139 129 135 111 101 125 134 145 143 148 148 148 142 127 130 134 134 137 138 139 140 141 140 141 145 145 145 145 144 144 142 140 139 139 139 139 138 136 134 132 132 130 127 123 116 108 100 93 88 91 97 95 86 75 77 80 77 76 82 94 107 120 127 131 134 134 134 124 112 98 94 90 86 87 87
199 221 188 240 238 225 245 247 262 266 271 260 264 280 282 330 7 177 106 57 315 150 127 131 130 101 107 133 133 174 152 151 151 146 137 128 130 131 132 135 137 136 138 142 140 142 146 147 147 146 147 145 143 142 140 140 140 140 139 136 135 135 133 130 126 119 109 101 93 91 89 91 95 86 78 71 72 77 75 73 75 81 92 105 117 128 135 136 134 126 116 103 97 93 91 88 83
201 221 213 233 251 245 245 248 266 271 273 269 271 275 260 243 187 156 141 102 66 126 111 119 125 104 149 160 154 187 154 150 147 136 128 126 130 130 132 134 134 135 138 139 137 141 147 150 149 148 148 145 144 143 140 140 141 141 140 137 136 135 133 127 120 112 104 103 102 101 94 89 91 82 75 69 69 75 74 72 72 75 82 94 108 120 131 136 134 128 120 109 100 92 93 92 88
198 202 235 226 233 236 225 239 254 264 271 276 279 245 232 283 266 164 141 98 97 130 114 143 192 126 163 162 154 158 145 143 140 131 123 122 126 128 131 131 131 136 138 136 137 143 150 153 151 148 147 144 143 142 141 141 140 141 140 137 135 132 129 124 115 109 106 108 114 110 95 89 90 82 74 70 67 70 72 72 72 73 77 84 97 113 125 133 132 127 122 113 102 91 87 94 98
205 198 231 231 224 225 211 222 232 247 258 270 277 232 215 279 266 238 99 78 75 90 95 128 97 116 148 149 146 143 139 139 136 133 124 122 124 126 130 130 133 137 139 139 142 148 151 152 148 145 145 143 143 141 142 141 139 142 139 135 131 133 131 123 115 113 114 113 115 115 100 92 91 76 70 70 62 65 68 69 74 75 75 77 83 97 111 123 128 125 122 114 105 95 71 94 123
215 195 219 228 218 219 218 223 232 241 248 264 267 244 231 261 253 300 57 79 76 63 54 74 65 85 121 134 140 138 136 137 136 136 130 127 129 130 135 135 137 140 143 145 147 150 147 145 145 144 144 146 147 145 145 142 142 143 136 135 139 143 132 115 110 110 113 108 99 102 93 84 91 68 56 65 57 61 66 61 71 77 79 79 78 82 89 99 105 106 101 103 198 259 315 60 166
217 197 211 224 218 225 238 242 244 244 252 265 263 229 288 292 307 108 30 105 102 83 61 79 84 94 112 129 137 135 136 138 140 139 136 135 136 140 141 138 140 143 147 148 149 149 143 143 147 147 148 153 153 151 149 145 142 140 137 142 149 143 125 114 113 111 109 100 81 76 63 58 104 61 36 49 49 60 69 62 63 73 82 84 81 81 82 85 87 86 63 8 284 262 278 279 220
218 208 223 221 216 236 246 252 258 255 255 257 254 125 160 292 320 132 48 58 122 123 121 107 109 121 127 137 139 136 137 138 140 141 140 139 141 143 142 141 144 146 146 148 150 149 146 147 149 148 150 153 153 154 153 149 142 140 142 144 147 131 116 123 127 120 121 108 86 87 99 127 142 106 94 131 54 71 70 64 64 69 76 78 77 70 70 76 73 62 39 29 27 311 288 293 268
210 212 229 218 207 232 240 248 258 256 256 258 241 105 185 283 338 311 334 331 159 155 154 141 141 143 142 148 143 139 138 138 142 140 132 130 135 138 140 142 143 144 144 147 147 145 148 149 148 144 143 149 155 159 153 149 143 140 144 136 136 133 122 126 126 130 182 170 148 146 154 162 167 157 172 204 229 251 26 49 63 65 62 59 57 34 17 32 16 359 353 3 7 340 320 311 298
227 225 224 229 227 235 237 238 247 251 264 278 157 134 203 68 340 317 340 271 241 171 159 143 143 144 143 145 139 137 132 127 120 98 73 72 89 96 108 126 134 141 141 142 143 141 144 144 144 141 143 152 151 148 146 147 148 150 157 147 137 142 133 124 145 160 156 168 175 181 187 185 184 182 193 212 235 261 303 356 3 335 337 350 7 356 320 322 327 322 313 314 326 320 322 323 311
226 238 218 224 232 243 253 249 253 261 277 293 160 153 27 19 339 32 51 32 45 105 119 115 119 116 109 104 93 94 88 81 74 65 57 59 59 57 71 102 125 134 132 134 139 139 140 141 143 142 149 156 142 135 139 147 154 162 176 178 166 167 159 151 182 189 175 186 200 194 199 207 193 188 202 214 224 241 266 271 357 339 342 341 323 317 314 310 302 302 299 293 303 307 313 321 316
216 234 220 219 222 232 247 257 264 266 239 130 16 354 44 7 359 66 66 65 75 86 91 87 83 81 80 77 67 58 60 65 67 79 89 90 89 91 103 113 115 122 127 133 139 141 142 146 148 149 157 160 153 148 147 154 160 168 181 184 182 182 174 173 182 192 198 201 209 211 216 226 206 191 205 167 190 211 194 173 19 352 354 356 325 312 316 323 306 303 303 292 302 307 307 316 318
218 223 222 223 222 228 234 246 255 246 217 107 39 328 327 110 78 70 50 65 88 95 91 87 90 85 85 97 99 92 88 86 92 110 118 120 122 123 127 132 128 125 129 137 142 144 146 149 150 155 161 157 159 160 157 163 165 167 173 175 179 174 167 175 177 173 190 202 222 230 222 228 205 163 151 79 85 82 105 93 27 7 10 2 345 345 335 344 344 340 338 326 332 326 312 320 327
216 218 221 226 231 240 235 237 242 219 181 107 82 294 284 123 84 60 347 30 82 96 93 99 110 104 95 95 101 107 103 110 129 128 120 127 130 132 137 139 138 136 136 141 144 143 145 150 150 157 158 154 161 162 160 166 166 166 167 162 162 166 160 158 159 153 177 203 235 244 226 219 205 106 72 65 72 82 83 64 23 2 11 14 1 2 358 354 344 341 343 335 337 331 321 326 328
213 214 216 223 233 248 247 244 241 200 151 135 147 262 278 281 86 72 309 56 84 93 92 101 104 102 103 100 108 118 114 120 131 127 125 135 139 141 145 142 140 142 143 146 144 142 149 155 157 161 161 164 171 169 167 169 170 169 168 164 157 156 152 148 157 163 174 207 241 252 236 208 205 107 85 68 73 81 74 75 66 3 20 27 9 353 339 332 326 326 332 328 325 323 322 325 326
233 223 216 220 227 242 249 254 250 200 149 148 151 211 260 351 74 151 148 92 99 100 99 103 99 104 110 109 118 119 121 131 137 139 141 147 149 149 149 144 143 146 147 146 146 151 160 161 161 164 166 170 169 166 169 170 171 167 167 169 162 157 155 157 172 176 173 219 255 249 225 194 194 77 80 60 59 63 77 99 89 65 49 22 355 345 344 350 352 339 330 332 329 323 317 317 326
247 239 226 222 221 231 240 250 246 202 184 154 136 232 276 60 93 147 121 110 104 101 104 106 107 113 112 109 109 106 122 133 134 131 128 138 151 156 150 145 144 143 144 149 156 161 160 157 159 162 166 168 162 161 166 167 170 166 166 170 167 169 166 164 172 169 156 164 258 266 220 166 69 57 81 68 59 50 65 68 50 57 50 6 347 350 357 0 351 337 332 335 330 325 321 319 325
245 242 237 230 225 227 228 240 236 200 178 147 136 209 202 89 119 134 124 132 107 102 112 114 115 115 113 113 109 112 123 125 122 122 130 143 161 169 149 144 144 143 149 157 163 163 156 153 160 163 163 167 165 166 165 165 167 163 166 164 160 164 159 157 153 140 133 135 215 274 254 174 119 80 81 79 64 33 49 53 38 49 47 3 345 347 344 343 339 338 339 330 321 323 324 323 324
236 238 237 219 225 232 216 231 230 206 181 157 156 194 175 112 130 136 131 138 111 107 116 115 118 115 114 118 117 124 128 129 132 136 144 149 164 163 148 146 148 150 156 161 162 163 160 155 162 165 161 164 164 167 167 162 162 161 164 154 144 144 136 135 128 118 127 131 136 241 262 175 114 88 66 69 65 46 47 58 41 33 41 11 347 345 335 341 350 348 346 335 328 331 330 330 332
217 222 230 208 214 222 198 224 222 199 181 171 176 188 152 141 159 144 127 129 115 113 120 116 118 121 124 127 128 132 138 143 144 150 153 147 150 152 150 152 153 157 161 161 160 162 162 159 163 165 160 160 156 161 164 156 153 154 151 141 141 137 119 119 112 106 121 125 120 134 266 89 95 84 72 73 69 61 62 64 52 48 51 33 12 9 3 11 11 2 3 360 350 346 343 342 342
215 205 212 205 204 195 184 236 226 187 178 190 192 187 129 146 167 142 127 132 122 117 124 124 121 126 130 134 137 138 142 149 159 172 161 147 149 154 156 157 157 163 165 163 161 159 158 156 160 161 156 156 153 154 159 155 151 149 144 136 135 127 115 117 108 99 105 106 106 99 21 66 84 84 84 84 80 77 79 76 70 73 74 66 56 48 39 32 23 14 15 17 6 355 349 349 348
223 202 199 202 195 178 177 248 250 193 184 203 199 184 125 134 152 140 133 134 123 122 130 129 126 128 133 138 142 145 150 156 173 189 166 148 150 154 156 158 159 162 162 162 161 158 154 151 154 155 152 156 155 152 152 151 147 144 137 130 129 125 117 116 108 103 103 98 93 82 68 80 85 88 90 88 86 84 83 81 79 77 75 73 67 60 52 39 33 26 17 23 21 15 12 6 357
203 190 181 196 202 196 187 206 242 210 190 200 201 171 126 131 147 146 141 137 123 124 127 127 128 127 132 138 141 145 146 143 141 160 154 145 148 149 150 153 155 155 157 158 155 153 150 147 149 148 150 156 155 151 147 145 144 138 130 128 131 124 116 114 110 107 103 97 92 90 88 87 83 85 89 88 83 75 69 68 68 65 59 56 51 46 39 28 25 20 14 16 17 32 30 14 1
201 189 176 187 206 222 207 201 221 212 190 198 191 145 136 143 153 156 148 137 124 122 121 123 128 127 131 132 131 132 123 109 94 98 115 123 129 133 135 140 144 148 154 155 150 149 146 146 147 146 149 152 150 149 147 144 141 135 132 134 133 124 118 114 108 104 100 99 101 101 97 89 83 82 82 84 81 74 65 58 56 55 49 44 40 33 28 25 21 12 10 11 8 23 25 12 4
218 193 193 202 206 227 228 221 221 205 190 197 167 127 137 146 148 156 145 130 127 128 126 128 134 134 135 132 130 123 107 107 103 98 104 108 106 114 122 130 136 142 150 152 147 143 142 145 148 146 148 150 150 150 151 150 146 141 139 139 134 125 118 111 106 104 102 103 108 106 98 90 84 78 72 73 77 77 70 59 51 50 51 53 49 38 29 30 26 14 9 14 14 17 19 14 7
231 202 201 203 202 223 231 239 234 196 177 173 137 121 134 142 145 154 134 127 135 137 133 135 137 136 137 137 132 120 107 112 111 102 107 117 121 121 125 132 140 147 150 149 144 140 139 142 145 146 149 152 152 152 154 154 151 148 145 142 135 122 115 113 111 108 106 106 105 103 95 85 78 71 65 65 69 71 68 61 51 44 48 56 54 44 35 32 28 21 13 13 18 21 26 21 15
239 218 204 198 196 212 225 243 245 201 162 142 126 123 131 133 137 136 117 121 133 135 135 139 139 136 138 137 128 123 123 125 125 112 115 130 137 132 132 137 145 153 153 147 142 140 140 140 141 143 148 150 150 152 152 146 142 144 145 140 131 119 115 117 115 113 113 108 99 95 86 76 72 66 59 55 54 55 56 58 53 44 43 47 49 45 41 33 26 25 21 18 17 22 34 30 25
241 224 204 207 197 191 208 241 249 187 132 127 117 111 111 112 116 110 96 101 108 108 114 122 130 134 134 131 130 135 137 137 135 125 127 139 142 138 140 142 145 151 153 147 143 141 141 141 142 143 146 146 144 144 143 140 138 137 133 127 123 120 119 119 115 112 115 113 99 86 77 69 64 58 54 47 42 40 41 50 56 53 53 54 54 49 44 37 30 28 27 26 25 29 38 33 31
237 230 215 226 208 190 198 209 96 79 102 120 111 87 76 119 126 120 99 101 104 99 101 94 103 129 130 129 136 144 143 143 143 139 138 143 147 148 145 144 147 149 149 149 145 142 141 140 141 140 140 138 137 135 134 136 136 130 125 122 119 116 114 111 109 106 105 106 95 81 72 63 59 56 51 48 45 43 44 56 70 69 62 58 57 53 49 46 40 33 29 31 36 39 42 37 34
237 236 226 236 241 210 202 175 97 86 113 135 120 97 280 178 145 144 125 120 119 112 114 103 101 134 139 139 146 149 144 141 140 139 142 147 150 151 147 148 151 147 146 148 145 141 139 135 132 133 133 132 131 130 129 131 133 132 131 129 123 111 101 99 104 105 102 95 86 78 67 57 59 59 57 59 60 58 55 62 77 75 66 63 62 60 57 54 49 42 36 36 41 42 45 42 34
230 232 226 236 249 252 229 192 127 124 173 185 160 121 160 204 169 160 143 132 135 129 128 133 142 154 155 153 153 152 145 138 136 138 145 150 149 148 147 150 149 143 144 146 140 134 132 129 125 124 125 125 124 122 123 126 132 138 137 132 126 116 106 104 111 113 107 95 86 81 73 69 71 69 69 72 72 68 60 59 76 76 68 67 68 63 59 55 50 43 36 35 42 45 46 46 38
226 226 226 235 239 251 252 214 157 156 154 193 196 116 123 199 183 164 145 135 144 145 144 156 171 172 166 161 159 157 149 141 141 145 152 153 149 146 145 145 142 139 141 142 138 132 128 123 119 118 117 117 116 115 117 122 133 141 141 133 126 123 118 116 121 123 119 109 96 86 80 81 83 78 73 72 72 69 62 59 74 78 69 71 72 62 53 49 44 39 38 42 51 51 46 46 43
221 224 228 239 237 240 252 241 166 162 141 187 210 120 114 202 172 157 148 144 154 158 162 172 180 177 170 164 166 163 151 144 143 146 153 152 147 143 140 139 139 139 141 140 136 133 130 125 121 119 117 116 118 120 118 120 130 137 137 132 124 121 122 121 122 124 122 116 102 90 83 82 84 79 67 64 69 70 64 61 71 77 70 71 73 61 50 47 48 48 50 52 55 54 50 50 49
207 224 235 242 241 241 247 228 159 159 147 185 197 151 119 169 169 155 155 164 167 164 170 181 181 177 175 171 169 165 153 147 144 144 149 146 142 138 135 138 141 142 142 137 133 133 133 130 126 121 120 119 121 124 118 115 123 129 128 128 125 123 125 123 122 124 124 118 106 96 90 84 80 72 63 63 69 72 69 64 70 77 70 69 74 66 54 51 51 52 54 53 53 52 49 50 50
195 218 238 239 240 261 270 208 132 142 201 196 184 166 137 137 192 176 177 178 167 162 170 182 181 175 175 176 170 161 153 149 143 140 143 139 136 135 136 141 145 147 144 136 134 135 134 132 128 121 118 118 119 121 119 114 115 118 121 124 125 127 129 127 127 129 127 121 111 103 98 90 81 73 67 68 72 73 72 69 72 76 72 69 72 69 62 58 55 53 55 53 52 51 47 48 48
209 216 215 212 236 270 277 277 83 136 240 224 186 178 153 139 198 200 195 170 159 164 173 176 178 175 174 176 168 158 153 149 144 142 142 137 135 137 141 150 152 150 145 138 137 137 134 132 128 121 118 117 116 118 120 118 115 114 117 120 121 126 131 135 139 135 130 124 116 110 104 95 88 80 72 70 72 74 75 73 73 75 72 70 69 68 64 64 65 62 60 56 52 51 49 49 48
222 222 182 162 205 217 222 247 118 167 254 238 177 181 188 168 189 191 185 167 164 170 173 172 173 171 171 172 166 157 152 151 146 143 144 143 142 144 150 161 160 150 143 139 138 137 133 131 129 123 120 118 117 117 118 118 118 117 118 119 120 127 134 139 142 138 133 126 118 112 105 99 94 87 78 74 71 74 77 76 73 73 72 70 70 68 63 63 69 67 62 59 56 53 49 49 49
212 217 169 154 173 182 209 213 160 178 293 284 163 166 196 190 194 185 177 172 168 166 167 169 168 164 165 166 160 153 151 149 145 144 146 148 147 150 158 167 163 148 141 140 139 137 135 133 130 124 122 121 116 112 113 115 117 119 122 123 124 127 129 131 132 131 128 124 117 111 107 103 99 92 86 80 75 75 79 79 77 75 73 71 71 71 67 63 67 66 61 60 59 55 50 50 50
208 215 148 156 175 161 196 184 146 185 206 229 192 140 166 191 226 184 166 155 150 148 154 157 155 156 157 157 153 149 149 146 142 145 147 149 150 154 163 167 160 147 143 142 140 138 136 133 130 126 124 125 119 111 111 115 117 121 127 130 129 127 127 127 127 125 122 120 119 116 110 106 103 97 90 85 79 77 79 80 80 77 74 73 71 71 70 65 64 65 62 60 59 55 51 51 51
204 206 137 196 205 144 161 175 153 154 154 202 190 182 264 132 94 131 131 130 134 137 146 149 149 154 155 156 155 149 148 147 146 147 146 148 150 157 166 166 156 149 145 143 141 138 136 134 131 127 124 126 125 119 115 114 118 123 128 130 129 129 129 128 127 124 119 117 120 118 109 103 100 96 92 87 81 78 77 78 79 78 76 74 70 68 67 65 65 64 61 60 60 57 55 52 51
197 203 177 210 193 130 130 171 127 99 115 235 162 72 29 67 46 99 129 136 140 143 152 157 156 158 158 159 157 152 151 149 148 150 149 149 154 164 171 164 154 150 146 143 142 141 140 137 133 129 126 126 129 129 125 122 124 126 130 133 132 133 131 129 128 125 120 120 119 115 109 104 99 95 93 89 85 81 78 77 76 77 77 75 71 67 64 63 64 63 59 59 60 60 58 53 52
170 199 210 202 170 142 118 131 127 97 131 255 136 134 160 123 59 190 140 139 148 151 155 157 155 159 161 161 159 155 153 149 146 151 152 152 161 170 169 158 153 150 146 144 145 144 143 139 135 132 129 128 129 131 131 130 129 129 133 138 139 137 132 128 130 127 122 120 117 114 111 108 103 98 94 92 91 88 83 80 76 76 77 75 72 69 66 62 62 62 59 58 59 61 60 56 54
187 181 188 177 167 198 174 139 160 139 146 281 181 158 183 157 154 170 157 153 157 155 154 156 158 163 164 162 159 154 152 151 151 155 155 154 164 169 160 152 151 150 147 147 146 145 143 141 138 134 131 131 132 132 133 134 134 134 136 137 139 140 136 133 133 130 125 122 120 118 116 112 110 105 100 97 95 92 88 84 79 77 79 76 75 75 72 67 62 59 58 58 59 59 59 57 54
245 191 166 169 159 169 183 165 159 148 153 226 223 175 206 197 162 164 167 164 159 158 162 163 165 168 167 162 159 156 156 159 159 159 157 158 165 164 156 153 152 150 148 147 146 144 144 144 142 137 135 137 137 136 137 139 141 142 144 143 142 142 141 140 137 132 127 124 122 121 117 114 112 109 104 100 95 91 88 86 81 80 80 79 78 79 77 73 68 63 58 58 59 58 58 58 56
230 215 166 183 187 163 185 203 163 143 145 173 195 221 246 230 165 163 166 165 163 166 168 166 167 171 170 162 158 157 158 161 162 161 159 160 162 159 156 155 152 150 148 147 147 146 145 146 145 143 141 141 142 144 147 149 150 152 155 153 148 143 139 136 135 131 128 125 124 122 118 115 113 108 103 100 96 90 86 83 81 77 78 81 81 83 83 76 71 67 62 60 62 60 60 62 59
189 174 175 183 188 163 157 262 224 150 144 167 168 206 257 269 176 163 165 166 170 171 168 163 166 170 168 159 156 155 157 159 160 160 159 159 157 156 156 154 150 148 147 148 149 146 145 146 147 149 148 147 150 157 161 160 159 158 154 149 144 140 136 134 133 132 130 128 126 124 122 119 115 110 106 102 96 88 82 79 75 70 75 83 85 90 93 82 72 70 66 62 62 60 62 66 64
Height
777 777 775 775 773 774 775 777 798 798 798 813 803 798 785 764 765 767 769 763 763 759 750 755 756 756 767 780 787 788 792 796 799 805 810 801 794 795 795 796 798 799 803 806 808 810 811 812 812 813 814 814 815 815 816 818 820 821 822 823 824 825 826 827 828 828 828 828 829 829 830 830 830 831 831 832 832 833 833 834 834 834 834 834 834 834 834 834 834 834 834 833 833 832 832 832 832
778 777 775 776 772 778 781 779 806 809 806 818 802 794 781 763 768 773 771 765 764 756 750 756 758 762 766 771 775 783 792 789 787 791 795 794 795 798 797 798 798 800 802 806 808 810 811 812 813 814 815 815 816 816 817 819 820 822 823 824 825 826 827 828 829 829 829 829 830 830 831 831 832 832 832 833 833 834 834 835 835 835 835 835 835 835 835 835 835 835 835 834 834 833 833 833 833
778 778 776 777 773 776 782 785 807 814 817 822 804 787 775 772 774 771 765 759 755 749 751 756 761 767 769 775 776 786 796 788 784 787 792 793 795 800 800 799 800 801 802 806 808 810 812 813 814 815 815 816 817 817 818 820 821 822 824 825 826 827 828 829 830 830 830 831 831 831 831 832 833 833 834 834 834 835 835 836 836 836 836 836 836 836 836 836 836 835 835 835 834 834 834 834 834
778 779 777 779 781 781 788 797 805 811 820 818 805 787 775 777 771 764 759 752 748 745 752 758 768 768 768 783 781 785 794 788 786 786 791 793 793 799 800 801 802 802 804 806 808 810 812 813 814 815 816 817 818 818 819 821 822 823 824 826 827 828 829 830 831 832 832 832 832 832 832 833 834 834 835 835 835 835 836 836 836 836 836 837 837 837 837 837 836 836 836 836 835 835 835 835 835
779 779 779 781 790 789 793 803 803 808 815 809 805 789 775 773 766 762 755 750 746 746 750 758 774 769 766 777 778 788 792 788 788 785 790 794 794 797 799 802 802 803 806 807 808 811 813 814 815 816 817 818 818 819 820 822 823 824 826 827 828 829 830 831 832 833 833 833 833 833 834 834 834 835 835 836 836 836 837 837 837 837 837 837 837 837 837 837 837 837 837 836 836 836 836 836 836
779 778 777 780 786 786 797 809 807 810 803 795 799 786 773 767 762 760 754 749 745 746 748 755 769 771 775 776 774 784 785 785 789 787 789 794 796 797 800 802 803 804 806 807 809 811 814 815 816 817 817 819 820 821 822 823 824 826 827 828 829 830 831 832 833 834 834 834 834 834 835 835 835 836 836 836 836 837 837 837 838 838 838 838 837 838 838 838 837 838 837 837 837 837 837 837 837
780 782 780 785 788 787 805 813 809 809 794 784 788 780 771 764 757 757 756 754 752 749 749 756 760 770 785 780 780 782 779 783 785 788 790 793 797 798 800 801 803 805 806 808 810 813 815 816 817 818 819 820 821 822 824 825 826 827 829 830 830 831 833 834 834 835 835 835 835 835 836 836 836 836 837 837 837 837 837 838 838 838 838 838 838 838 838 838 838 838 838 838 838 837 838 838 838
781 786 783 792 800 797 808 810 805 803 789 778 775 771 766 760 755 754 756 757 757 753 754 759 754 772 789 779 788 786 778 783 783 789 791 793 796 798 800 800 803 805 807 809 811 814 816 818 818 819 820 821 823 824 826 827 828 829 831 831 832 833 834 835 835 836 836 836 836 836 837 837 837 837 837 837 837 837 838 838 838 838 838 838 838 838 839 839 839 839 839 839 838 838 838 838 839
781 787 787 796 806 804 807 807 802 795 786 777 771 766 760 755 752 753 755 756 753 751 756 757 751 774 791 783 791 786 780 785 784 789 791 794 796 797 800 800 803 805 808 810 812 815 817 819 820 821 822 823 824 826 828 829 830 831 832 833 833 834 835 836 836 837 837 837 837 837 838 837 838 838 838 838 838 838 838 838 837 838 838 838 838 838 839 839 840 840 840 840 839 839 839 839 839
783 786 790 798 805 811 812 807 801 792 783 774 768 761 756 751 750 751 754 755 750 751 755 752 755 773 785 788 791 785 784 786 786 791 792 794 795 797 800 801 803 804 808 811 813 816 818 821 821 823 823 825 826 827 829 830 832 832 833 834 835 835 836 837 837 838 838 838 838 838 838 838 838 838 838 838 838 838 837 837 837 837 837 838 838 839 839 839 840 840 841 840 840 840 840 840 840
790 786 788 801 808 814 814 807 799 791 780 771 766 756 751 747 748 751 750 752 746 751 756 753 765 774 779 789 789 784 784 786 787 790 792 794 795 797 800 803 804 805 808 810 814 817 819 822 823 824 825 827 828 829 831 832 833 834 835 835 836 837 838 838 838 839 839 839 839 839 839 839 839 838 839 838 838 838 838 838 837 837 837 838 838 839 839 840 840 841 841 841 841 841 841 841 841
795 790 790 805 810 809 806 803 798 789 780 774 768 753 746 745 748 750 749 752 746 749 752 753 765 769 782 793 787 784 783 787 788 789 793 794 795 798 801 804 806 807 809 811 814 817 820 823 824 826 827 828 829 831 832 833 835 835 837 837 838 839 839 840 840 840 840 841 840 840 840 839 839 839 839 839 839 839 838 838 838 838 838 838 838 839 839 840 840 841 842 842 842 842 842 842 842
792 791 794 804 801 800 800 799 794 788 784 775 766 751 744 746 748 748 746 749 746 750 750 747 754 761 783 793 785 784 784 786 788 790 793 794 796 799 802 804 807 809 810 813 815 818 821 823 825 827 828 830 831 832 834 835 837 837 838 839 840 840 841 841 841 842 842 842 841 841 840 840 840 840 840 840 840 840 839 839 839 838 838 838 838 839 839 840 841 841 842 842 842 842 842 842 842
785 785 792 799 794 794 795 795 792 790 787 770 759 748 745 746 745 742 744 751 749 749 748 741 744 760 784 791 790 788 783 786 787 790 792 794 797 799 803 805 808 810 812 814 816 819 821 824 826 827 829 830 832 833 835 837 838 839 839 840 841 842 842 843 843 843 843 843 842 842 841 841 841 841 841 841 841 841 840 840 839 839 839 839 839 839 840 840 841 842 842 843 843 843 843 843 843
780 781 787 796 795 794 792 791 790 790 785 766 755 747 746 744 738 740 742 750 752 743 744 744 741 758 779 784 789 785 779 783 785 788 791 794 798 800 804 806 810 811 814 816 817 820 822 825 826 828 830 831 833 834 836 837 839 840 840 842 842 843 843 844 844 844 844 844 843 843 843 842 842 842 842 842 842 842 841 841 840 840 840 839 840 840 841 841 842 842 842 843 843 843 843 843 843
773 778 787 796 797 798 792 787 787 790 781 763 752 746 750 746 736 741 737 738 748 741 743 752 745 751 766 768 773 774 776 781 783 787 790 795 798 802 806 807 811 812 815 817 818 821 823 825 827 828 830 831 834 835 837 838 840 841 841 843 843 844 844 845 845 845 845 845 844 844 844 844 844 844 843 843 843 843 842 842 842 841 841 840 841 841 842 842 842 843 843 843 843 843 843 843 843
770 779 791 797 796 796 789 784 784 784 775 761 751 747 754 751 739 737 730 731 746 747 746 751 746 747 757 760 763 768 774 778 782 786 789 795 799 803 807 809 811 813 816 818 820 822 824 827 828 829 831 832 834 835 837 838 840 841 842 843 844 845 845 846 846 846 846 845 845 845 845 845 845 845 844 844 844 844 843 843 843 842 842 842 842 842 842 843 843 843 843 843 843 843 843 843 843
774 783 792 795 794 788 780 776 773 771 768 761 753 749 753 754 746 737 734 741 749 754 754 752 752 753 756 760 763 766 771 776 781 785 789 794 799 803 807 809 811 814 817 819 821 823 825 827 829 830 831 833 834 836 837 838 840 841 842 843 844 845 845 846 846 846 846 846 846 846 846 846 845 845 845 845 844 844 844 844 844 843 843 843 843 843 843 843 844 844 843 844 844 844 843 843 843
775 781 787 788 784 778 769 767 764 762 763 758 751 748 750 751 748 742 746 754 755 763 767 761 763 765 764 765 766 767 769 775 780 785 790 794 799 804 807 809 812 814 817 819 822 824 825 828 829 831 832 833 834 836 837 838 840 840 842 842 843 844 845 846 846 846 847 847 847 847 847 846 846 846 846 845 845 845 845 845 844 844 844 844 844 844 844 844 844 844 844 844 843 843 843 843 843
771 775 784 780 773 771 764 761 759 757 754 753 751 747 746 746 742 743 750 756 758 767 770 768 773 773 772 771 768 768 770 775 781 786 791 795 799 803 806 809 812 814 817 819 822 824 825 827 829 830 832 833 834 835 837 838 839 840 841 842 843 844 844 845 845 846 846 847 847 847 847 847 847 847 847 846 846 846 845 845 845 845 845 844 845 845 845 845 845 844 844 844 843 843 843 843 843
768 769 777 771 766 768 762 758 755 751 748 750 751 749 749 744 739 743 749 756 761 764 761 760 768 769 770 772 769 769 772 777 783 788 794 799 803 806 809 811 813 816 818 821 823 824 825 827 828 830 831 833 834 835 836 837 838 839 840 841 842 843 843 844 844 845 846 847 847 848 848 847 847 847 847 847 846 846 846 846 846 845 845 845 845 845 845 845 845 845 844 844 844 844 843 843 842
766 764 765 763 762 766 759 753 750 748 747 750 752 752 750 744 743 747 751 759 757 753 754 753 758 763 767 771 772 772 775 782 789 796 803 808 812 814 816 817 818 819 821 823 824 824 825 827 828 829 832 833 834 834 835 837 837 838 839 840 841 841 842 842 843 845 845 846 847 847 847 847 847 847 847 847 846 846 846 846 846 846 846 845 845 845 845 845 845 845 845 844 844 844 843 843 842
767 764 758 758 758 761 756 748 748 747 750 753 753 749 746 747 753 752 755 761 750 744 752 756 762 767 772 777 781 785 788 793 798 805 810 814 817 820 822 824 824 823 824 824 824 825 825 826 828 830 832 833 834 834 835 836 837 837 838 838 839 839 841 841 843 844 845 845 845 846 847 847 847 847 847 847 846 846 846 846 846 846 846 846 845 846 846 845 845 845 845 844 844 844 844 843 843
763 764 757 754 754 755 752 747 746 747 750 750 747 748 749 754 758 757 760 761 751 749 755 763 772 776 779 785 791 796 799 803 806 809 811 813 816 820 825 828 829 827 826 826 825 825 826 826 828 830 831 832 833 833 834 835 836 837 837 838 839 840 840 841 842 843 844 844 845 846 847 847 847 847 846 847 846 846 846 846 846 846 846 846 846 846 846 845 845 845 845 845 844 844 844 844 843
758 760 755 751 751 749 746 745 744 745 747 743 745 750 752 753 756 764 768 763 755 753 757 766 776 781 784 787 791 795 797 801 806 806 807 809 811 814 820 826 829 828 826 826 826 826 826 826 828 829 829 830 832 833 834 835 836 837 839 840 841 841 841 842 843 844 845 845 845 846 846 847 847 847 846 846 847 846 845 845 845 846 846 846 846 846 846 846 846 846 846 845 845 844 844 843 842
752 752 751 749 749 745 743 743 741 743 742 740 747 751 749 746 753 771 775 767 761 756 761 768 773 781 787 790 793 796 795 796 800 802 803 806 808 809 813 818 822 824 824 825 826 826 826 827 828 828 828 829 830 831 833 834 835 836 837 839 839 840 841 843 844 845 846 847 846 846 846 847 847 847 847 847 846 845 845 845 845 845 846 846 846 846 846 846 846 846 846 845 845 844 843 843 842
744 746 746 746 747 743 741 742 740 740 739 739 747 752 749 741 752 777 777 768 766 763 770 774 775 783 789 792 794 794 794 796 798 800 803 805 807 808 811 814 818 820 821 823 824 825 826 827 827 827 828 828 828 829 831 832 833 834 835 836 837 838 840 841 842 843 845 848 848 847 847 847 847 848 848 847 846 846 845 845 845 845 846 846 846 847 847 846 846 846 846 845 845 844 844 843 842
740 742 745 744 744 743 739 741 740 739 740 738 743 751 749 747 762 778 775 770 768 767 776 779 780 786 789 792 792 790 791 794 797 798 801 805 806 808 811 813 815 817 819 821 823 824 824 825 825 827 828 828 829 830 831 832 833 834 836 836 837 838 840 840 841 840 842 847 850 849 848 848 847 848 848 847 846 846 846 845 844 844 845 846 846 847 847 847 846 846 846 845 845 844 844 843 842
739 740 749 747 744 745 740 739 738 739 742 736 741 757 761 766 777 777 772 773 771 771 780 782 784 786 788 791 792 792 791 793 797 800 803 806 809 810 810 811 812 815 817 819 821 822 823 823 825 826 827 829 830 831 832 833 833 834 836 836 837 838 839 840 841 841 840 844 850 852 851 849 848 848 847 846 846 845 845 845 843 843 843 845 846 846 846 846 845 845 845 845 844 844 843 842 842
741 740 747 750 752 751 739 737 738 740 740 733 745 770 779 780 780 775 773 774 773 778 783 784 785 785 787 790 792 794 795 795 797 800 803 805 809 810 808 809 809 812 815 817 819 820 822 822 823 825 826 828 830 831 832 832 833 834 836 836 838 838 839 840 841 843 843 844 850 855 854 851 850 848 847 846 845 845 844 844 844 843 843 844 846 846 846 846 845 845 845 845 845 844 843 842 841
742 745 747 750 760 756 738 735 739 743 738 731 747 773 785 785 778 774 775 774 775 783 787 785 786 786 787 789 792 795 796 798 798 797 799 802 806 807 805 806 807 809 813 815 817 819 821 821 822 824 826 828 829 831 831 832 833 834 835 836 837 838 838 840 842 843 845 846 849 855 857 854 851 849 849 847 846 845 845 845 845 844 844 846 847 847 847 846 846 846 846 845 845 844 843 842 841
742 752 757 752 758 755 740 735 738 743 739 733 748 772 785 785 779 774 775 777 777 784 790 789 788 788 789 791 792 795 796 798 798 797 798 799 802 804 804 805 806 808 811 815 817 818 819 820 821 823 825 827 829 830 831 831 832 833 835 836 837 837 838 840 842 843 845 847 847 853 857 855 852 850 849 848 847 846 845 846 846 846 846 847 847 846 846 846 845 845 845 845 845 844 843 842 841
743 751 760 755 755 755 747 738 733 737 740 738 747 770 785 782 778 775 775 778 778 784 791 790 791 791 790 792 792 794 797 798 799 799 799 796 798 803 804 805 806 808 810 814 816 816 817 819 820 821 824 826 828 829 830 831 832 832 834 835 836 837 838 840 842 843 845 847 848 853 858 855 852 850 849 848 847 847 846 847 847 847 847 846 846 846 846 845 845 845 845 845 844 843 843 842 840
750 748 754 752 750 753 753 745 735 731 739 744 744 761 779 778 776 776 775 777 778 784 790 791 792 792 791 792 793 795 797 799 799 801 802 798 798 801 804 806 807 810 812 813 814 815 816 818 819 821 823 826 828 829 829 830 831 832 833 834 836 837 838 840 841 843 845 846 848 853 857 854 852 850 849 848 847 847 847 847 847 847 847 846 846 846 845 845 845 845 845 845 844 844 842 841 840
753 751 752 752 748 750 752 748 738 732 739 745 746 761 777 778 776 776 774 775 778 784 789 791 793 793 794 794 795 797 798 801 802 804 806 804 802 803 805 807 809 812 813 814 814 815 816 817 819 820 823 825 827 829 829 830 831 831 832 833 835 836 838 839 841 842 844 844 846 852 854 852 852 850 849 848 847 847 847 847 848 847 847 847 846 846 846 845 845 845 845 844 844 843 842 841 839
745 745 748 751 751 749 745 741 733 730 741 745 748 767 779 778 776 774 774 774 777 784 788 792 794 793 795 796 798 800 801 803 804 806 808 808 807 807 808 809 811 814 815 815 816 816 816 817 818 820 823 825 827 829 829 829 830 830 831 832 834 836 837 839 840 842 843 842 845 850 852 851 851 850 849 848 847 847 847 847 847 847 847 847 847 846 846 846 846 845 845 844 844 843 842 840 839
736 739 743 746 749 748 740 735 727 725 739 745 749 768 778 778 777 772 773 776 779 785 789 792 793 794 796 798 799 800 802 803 805 807 809 810 811 810 811 812 814 816 817 818 817 817 817 817 818 820 823 825 827 828 828 829 829 829 831 832 833 835 837 838 840 841 841 842 845 849 851 851 851 850 849 849 848 848 847 847 847 847 847 847 847 847 847 847 846 846 845 845 844 842 841 840 838
735 738 741 743 745 744 736 730 724 720 735 746 752 768 777 776 777 773 772 779 783 784 788 791 791 792 795 797 799 800 801 803 805 808 809 811 813 813 814 815 817 819 819 820 819 819 819 818 819 821 823 826 827 827 828 828 829 829 830 832 833 835 837 837 838 840 841 843 846 849 850 851 850 850 849 849 849 848 848 847 847 848 848 848 848 847 847 847 846 846 845 844 844 843 842 841 838
736 736 739 744 741 740 736 727 720 718 732 750 757 769 778 776 774 774 774 778 782 783 784 787 788 791 794 796 799 800 802 805 806 808 811 813 814 815 817 818 819 821 821 821 821 820 820 820 821 822 824 826 827 827 827 828 829 829 831 833 833 834 836 837 837 839 841 844 847 849 850 850 849 849 849 849 849 848 848 848 848 848 848 848 847 847 846 846 846 846 845 844 844 843 842 841 839
736 736 740 743 735 739 742 730 722 720 731 750 761 771 780 778 777 776 776 779 782 784 784 786 787 790 793 795 798 800 802 805 807 809 811 813 815 816 818 819 820 822 823 823 823 822 821 822 823 824 825 826 827 827 827 827 829 831 833 834 835 835 836 837 837 840 842 845 847 848 849 849 849 849 849 849 849 848 848 848 848 848 848 848 847 846 846 846 846 846 845 845 844 843 842 841 840
735 730 736 737 729 730 734 729 730 735 743 748 758 781 789 783 785 784 781 783 785 786 788 789 791 791 793 795 798 799 799 802 806 809 811 812 814 816 818 820 821 822 824 824 823 823 823 824 825 826 827 827 828 827 827 828 829 831 834 835 836 835 835 836 837 840 843 845 847 848 848 848 849 849 849 849 849 848 848 848 849 848 848 847 847 847 847 847 847 846 846 845 844 843 842 842 841
737 727 726 728 725 724 722 725 739 758 770 754 749 787 802 786 786 790 785 787 790 790 791 794 795 794 794 795 796 798 798 799 803 807 810 812 814 816 818 820 821 823 824 825 825 825 825 826 827 827 828 828 829 828 828 829 830 831 833 835 835 834 835 837 839 842 844 846 847 847 848 848 849 850 849 849 849 848 848 849 849 848 848 847 847 847 847 847 847 846 846 845 844 844 843 842 842
741 725 718 720 722 724 720 721 740 762 773 752 736 771 801 793 786 786 785 789 793 793 794 796 796 795 794 793 794 796 796 798 802 806 809 811 813 815 817 819 821 823 824 825 826 826 827 828 828 829 829 829 830 830 830 831 831 832 834 835 835 835 836 838 841 843 845 846 847 848 848 849 850 850 850 849 849 849 849 849 849 848 847 847 848 847 847 847 847 847 846 845 844 844 842 842 843
736 718 714 718 719 725 722 719 734 745 750 747 735 751 788 798 786 780 781 790 795 794 796 797 795 795 794 792 793 794 793 795 800 805 808 810 813 814 816 819 820 822 824 825 826 827 828 829 830 830 830 830 830 831 831 831 831 832 833 834 835 836 837 840 842 844 846 847 848 849 849 850 850 850 849 849 849 849 849 849 849 848 847 848 848 848 848 848 848 847 847 845 845 844 843 844 845
725 712 711 715 715 719 718 719 728 732 744 760 749 743 776 796 782 774 780 788 795 796 794 794 793 793 793 792 793 792 791 792 795 801 806 809 812 814 816 818 820 822 824 825 826 828 829 829 830 830 831 831 831 831 831 831 832 832 834 834 836 837 838 840 843 845 847 848 848 850 850 851 851 850 849 849 850 850 850 850 849 848 848 848 849 849 849 849 848 848 847 846 846 845 845 845 845
713 709 710 711 711 711 713 719 725 730 747 764 752 740 766 793 783 777 784 787 792 793 791 791 789 790 791 790 790 790 791 792 794 799 804 808 811 814 816 818 820 823 824 825 826 827 828 829 830 831 831 832 831 832 831 832 833 833 834 835 836 838 839 841 843 845 847 848 849 850 851 851 851 851 851 850 851 851 850 850 849 848 848 849 849 850 850 849 849 849 848 848 848 847 847 846 846
706 710 714 713 712 710 714 718 721 738 753 751 743 734 751 786 789 777 774 772 776 784 788 788 786 787 789 789 788 790 792 793 794 799 803 808 811 813 816 818 820 823 824 826 826 827 828 829 830 831 832 832 832 832 832 832 833 834 835 836 837 838 840 841 844 846 848 849 851 852 852 852 851 852 852 852 852 851 851 850 849 849 850 850 851 851 851 850 850 850 850 850 849 848 848 848 847
706 712 717 722 723 722 726 726 728 751 760 742 730 724 736 773 785 770 761 756 760 772 778 781 782 784 786 787 787 788 791 793 794 799 803 807 811 813 817 819 821 823 824 825 826 827 828 829 831 831 832 833 833 833 833 833 834 835 836 837 838 839 840 842 845 847 849 850 852 852 852 852 852 853 854 853 853 852 851 851 850 851 851 851 852 852 852 851 851 851 851 851 850 849 849 849 848
709 711 719 734 742 743 747 746 744 756 754 731 720 723 734 755 760 753 753 752 752 758 763 768 774 779 783 784 785 786 789 792 794 798 803 806 810 813 816 819 820 822 824 825 826 827 828 830 831 831 832 833 833 833 834 834 835 836 836 837 839 840 842 844 846 848 850 851 852 852 852 853 854 854 854 854 853 852 852 852 852 852 852 853 853 853 853 852 853 852 851 851 851 850 850 850 849
710 711 720 737 747 756 762 755 753 757 748 727 717 726 741 747 742 738 741 742 743 748 755 761 765 772 779 781 782 785 788 792 794 797 802 805 809 812 815 818 819 821 823 824 826 827 828 829 830 831 832 832 833 833 833 834 835 836 837 838 840 842 843 845 847 849 851 852 852 852 853 854 854 855 854 854 853 853 853 853 853 853 854 854 854 854 854 853 853 853 852 852 851 851 851 851 850
705 700 710 727 731 744 757 752 753 756 747 732 725 734 745 743 735 730 732 735 739 747 754 760 766 771 776 779 781 785 788 791 794 797 801 805 808 812 815 817 818 820 822 824 825 826 827 829 829 830 831 832 832 833 833 834 836 837 839 840 842 843 844 846 848 850 851 852 852 853 854 854 854 854 854 854 854 854 854 854 855 855 855 855 855 855 855 854 854 853 853 852 852 853 852 852 852
703 694 707 722 715 720 735 737 738 742 745 740 736 742 740 732 729 727 733 741 743 750 757 762 770 773 775 779 780 784 788 791 793 797 801 804 808 811 814 816 818 819 821 823 824 825 826 828 829 829 830 831 832 833 834 836 837 838 840 841 843 844 846 847 849 851 852 852 852 853 854 854 854 854 854 855 855 855 856 856 856 856 856 856 856 855 855 854 854 854 854 854 854 854 854 853 853
702 702 712 711 699 704 724 735 731 734 750 746 738 748 745 738 744 738 737 746 748 752 758 761 767 771 774 778 779 783 787 789 792 795 799 803 807 811 813 814 816 818 820 822 823 825 826 828 829 830 830 831 833 834 835 837 838 839 841 843 844 845 847 848 849 851 851 852 853 853 854 854 854 855 855 856 856 857 857 857 857 857 857 857 856 856 855 855 855 855 855 855 855 855 855 854 853
700 710 708 697 696 702 715 736 743 745 758 748 735 752 754 753 764 754 744 752 753 753 758 761 766 770 773 776 778 782 784 787 791 795 798 802 806 810 812 813 815 817 819 821 823 825 826 828 829 830 831 832 833 835 836 838 839 840 842 844 845 846 847 849 850 851 851 852 853 853 854 855 855 856 856 857 858 858 858 858 858 858 857 857 856 856 856 856 856 856 856 856 856 856 855 855 854
691 697 692 695 715 721 718 733 748 754 763 753 740 751 752 750 759 756 751 754 754 754 757 761 766 768 770 773 776 780 783 786 790 793 797 800 805 808 810 812 815 816 819 820 823 825 827 829 830 830 831 832 834 835 837 839 840 841 843 844 846 847 848 849 850 851 851 852 853 854 854 855 856 857 858 858 858 859 859 859 858 858 857 857 857 857 857 857 858 858 858 857 857 857 856 856 855
685 687 688 693 709 718 717 723 734 745 759 758 750 751 746 737 738 743 745 745 747 752 754 758 762 763 764 768 772 777 781 784 788 791 795 798 803 807 808 811 814 815 818 820 822 825 826 828 829 830 831 832 834 836 838 840 841 843 844 845 846 847 848 849 850 851 852 852 854 854 855 856 857 858 858 859 859 859 859 859 858 858 857 857 857 857 858 858 859 859 859 859 858 858 857 856 856
695 699 702 701 701 705 711 715 717 728 748 756 755 753 742 723 718 727 734 735 738 742 746 753 758 758 760 764 768 774 778 783 787 789 793 797 801 805 807 809 812 814 817 819 821 824 826 827 829 830 832 833 835 837 839 841 842 843 844 845 846 847 848 849 850 851 852 853 854 855 856 857 858 859 859 859 859 859 859 859 858 858 858 858 858 858 859 859 859 859 860 859 859 858 858 857 857
696 701 702 703 705 709 722 729 717 713 729 741 746 752 741 718 711 718 723 727 730 732 737 747 753 755 758 762 767 772 777 781 785 789 792 796 799 803 805 808 811 813 816 819 821 823 825 827 829 830 832 834 836 838 840 841 841 843 844 844 846 847 848 849 850 852 853 854 855 856 857 858 859 859 860 859 859 859 859 859 858 858 858 858 859 859 860 860 860 860 860 860 859 859 858 858 857